STARLINK-36433, 67501

Orbit data source: Space-Track

STARLINK-36433, 67501 is a payload satellite owned by SpaceX/Seattle (US) in LEO that was launched on Sun, 18 Jan 2026 UTC via an FALCON 9 launch vehicle from the Air Force Eastern Test Range (AFETR). Payload-class satellites include a variety of spacecraft equipped with specific instruments for various scientific and technological missions. These include communications satellites like Starlink; space stations such as the ISS; scientific satellites like the Hubble; Earth observation satellites from companies like Planet Labs, Umbra, and HawkEye 360; GPS; miniature CubeSats for education and research; and military/defense satellites.

Loading next visibility...
Identifier
67501, 2026-012J
Orbit
LEO
Country
Flag of USUS
Related business
Manufacturer
SpaceX/Seattle
Mission
Operational Commercial Communications
Bus & Motor
STARLINK V2MO, Unknown motor
Mass
575 kg wet, ~530 kg dry
Launch date (UTC)
2026-01-18 (5 months ago)
Launch vehicle
FALCON 9
Launch site
Air Force Eastern Test Range (AFETR)
Object type
Payload
Rocket body
Debris
Shape & HBR
Box + 2 Pan, 17.7 m
Radar Cross Section
36.964 m², Large (>1 m²)

Expand to show TLE details & history
Last TLE update: 21 hours ago

TLE from 21 hours ago
0 STARLINK-36433
1 67501U 26012J   26170.96431520  .00029550  00000-0  10780-2 0  9995
2 67501  43.0004  96.7948 0000936 280.8392  79.2354 15.27611105 23403
Epoch: 2026-06-19T23:08Z
TLE epoch observation values (Epoch: 2026-06-19T23:08:36.833Z)
Latitude
-0.00003°
Longitude
-158.54444°
Altitude
482.612 km
Speed
7.626 km/s
True Right ascension
06h 27m 10s
True Declination
0° 00' 00"
Sunlit
Object was in daylight at epoch
Visualization orbit readout
Latitude
Unknown
Longitude
Unknown
Altitude
Unknown
Speed
Unknown
Apparent Right ascension
Unknown
Apparent Declination
Unknown
Sunlit
N/A
Visualization observer readout
Local Sidereal Time
07:23:24
Azimuth
Unknown
Elevation
Unknown
Doppler factor
Unknown
Orbital elements
Apogee altitude
485.543 km
Perigee altitude
484.259 km
Semi-major axis
6,863.038 km
Eccentricity
0.00009
Inclination
43.0004°
RAAN
96.7948°
Arg. of periapsis
280.8392°
True anomaly
79.24594°
Mean anomaly
79.2354°
Eccentric anomaly
79.24067°
Mean motion
3.81741 °/min
Orbital period
94.3 mins
BSTAR
0.001078
Loading maneuver chart data...
Computing Atmospheric mass density...
Loading historical data...
Loading historical data...
Loading historical data...
Loading historical data...
Loading historical data...
Loading historical data...
Loading historical data...

Documentation

Showing up to 5 results
|